Retour au catalogue

STARLINK-37644

ActifCommunicationsSSO
NORAD 69042·PAYLOAD·🇺🇸 United States

Lancé May 6, 2026 depuis Vandenberg Space Force Base

Loading…

Prochains Passages (prochaines 24 heures)

TLE

FraisSource: CelesTrak SupGP

Époque: Sep 14, 2026, 23:06 UTC

1 69042C 26101T   26257.96298611  .00082826  00000+0  25719-2 0  2573
2 69042  97.2849 111.5301 0002079  96.9536 156.7561 15.33386648    19

Suivez STARLINK-37644 en temps réel avec AllMySat

Download on the App Store